Location: Sungai Bunut
(2.6333°N, 113.7333°E)
Time: 09:10:07
(UTC+00:00)

Transit 2A Rocket - Pass Details

Date: 09 December 2023
Orbit: 590 x 905 km, 66.7° (Epoch: 01 March)

Event Time Altitude Azimuth Distance (km) Brightness Sun altitude
Rises 22:40:46 0° 342° (NNW) 2,985 7.7 4.3°
Reaches altitude 10° 22:42:58 10° 343° (NNW) 2,118 6.9 4.8°
Maximum altitude 22:47:47 82° 70° (ENE) 738 5.2 5.9°
Drops below altitude 10° 22:53:08 10° 158° (SSE) 2,335 8.3 7.2°
Sets 22:55:39 0° 159° (SSE) 3,316 9.0 7.7°
